Location: Banff
(51.1667°N, 115.5667°W)
Time: 23:56:12
(UTC+00:00)

Transit 4A - Visible Passes

Search period start: 05 December 2020 00:00
Search period end: 15 December 2020 00:00
Orbit: 862 x 982 km, 66.8° (Epoch: 05 December)

Date Brightness Start Highest point End Pass type
(mag) Time Alt. Az. Time Alt. Az. Time Alt. Az.
05 Dec 10.9 00:31:12 10° WNW 00:35:28 19° WSW 00:39:39 10° SSW visible
05 Dec 9.1 13:55:04 10° S 14:01:09 49° ESE 14:07:18 10° NE visible
06 Dec 11.1 00:41:40 10° WNW 00:44:23 13° W 00:47:04 10° SW visible
06 Dec 10.9 12:21:54 10° SE 12:25:08 14° E 12:28:24 10° ENE visible
06 Dec 8.5 14:04:04 10° SSW 14:10:22 66° ESE 14:16:45 10° NE visible
07 Dec 10.4 12:29:33 10° SSE 12:34:05 21° ESE 12:38:41 10° ENE visible
07 Dec 8.1 14:13:16 10° SW 14:19:40 87° SE 14:26:09 10° NE visible
08 Dec 9.9 12:37:47 10° SSE 12:43:07 29° ESE 12:48:31 10° NE visible
08 Dec 8.0 14:22:39 10° SW 14:29:02 73° NW 14:35:30 10° NE visible
09 Dec 9.3 12:46:22 10° S 12:52:13 40° ESE 12:58:08 10° NE visible
09 Dec 8.1 14:32:12 10° WSW 14:38:29 56° NW 14:44:50 10° NE visible
10 Dec 10.8 11:14:44 10° ESE 11:16:23 11° E 11:18:03 10° E visible
10 Dec 8.7 12:55:13 10° SSW 13:01:24 55° ESE 13:07:39 10° NE visible
10 Dec 8.3 14:41:54 10° WSW 14:48:00 45° NW 14:54:10 10° NNE visible
11 Dec 10.5 11:21:29 10° SE 11:25:17 17° ESE 11:29:07 10° ENE visible
11 Dec 8.2 13:04:17 10° SSW 13:10:39 74° ESE 13:17:05 10° NE visible
11 Dec 8.6 14:51:43 10° W 14:57:36 36° NW 15:03:30 10° NNE visible
12 Dec 10.0 11:29:39 11° SSE 11:34:16 24° ESE 11:39:11 10° ENE visible
12 Dec 7.9 13:13:33 10° SW 13:19:58 85° NW 13:26:27 10° NE visible
13 Dec 9.4 11:40:46 24° SSE 11:43:19 33° ESE 11:48:56 10° NE visible
13 Dec 7.9 13:24:24 17° SW 13:29:22 66° NW 13:35:48 10° NE visible
14 Dec 8.9 11:51:15 41° SE 11:52:27 45° ESE 11:58:31 10° NE visible
14 Dec 8.2 13:34:51 22° WSW 13:38:51 52° NW 13:45:07 10° NNE visible
